EW8078 Weather Reports


time (UTC)temp
C
wind
direction
speed
KPH
gust
KPH
rain 1hr
cm
rain 24hr
cm
rain mn
cm
humidity
%
barometer
mb
20260504210053 17 319 3.2 12.9 0.00 0.00 0.00 34 998.9
20260504204553 18 27 4.8 16.1 0.00 0.00 0.00 28 998.9
20260504203049 20 103 4.8 16.1 0.00 0.00 0.00 27 998.0
20260504201540 19 187 1.6 8.0 0.00 0.00 0.00 25 998.1
20260504200034 19 252 1.6 12.9 0.00 0.00 0.00 26 998.2
20260504194539 20 276 3.2 9.7 0.00 0.00 0.00 24 998.2
20260504193030 20 285 1.6 22.5 0.00 0.00 0.00 22 998.1
20260504191535 20 249 3.2 9.7 0.00 0.00 0.00 22 997.9
20260504190021 20 252 1.6 8.0 0.00 0.00 0.00 23 998.0
20260504184519 20 136 3.2 11.3 0.00 0.00 0.00 22 998.1
20260504183012 20 272 1.6 12.9 0.00 0.00 0.00 23 998.4
20260504181514 20 236 4.8 11.3 0.00 0.00 0.00 24 998.7
20260504180004 19 287 1.6 12.9 0.00 0.00 0.00 25 999.1
20260504174558 19 281 3.2 12.9 0.00 0.00 0.00 25 999.6
20260504173054 18 283 3.2 12.9 0.00 0.00 0.00 27 1000.0
20260504171554 18 264 3.2 9.7 0.00 0.00 0.00 27 1000.2
20260504081528 12 281 3.2 8.0 0.00 0.00 0.00 28 1001.7
20260504044542 16 269 4.8 16.1 0.00 0.00 0.00 24 1002.5
20260504043037 16 238 1.6 12.9 0.00 0.00 0.00 24 1002.4
20260504041531 17 212 3.2 9.7 0.00 0.00 0.00 25 1002.5
20260504040043 17 213 3.2 12.9 0.00 0.00 0.00 25 1002.6
20260504034524 17 221 4.8 12.9 0.00 0.00 0.00 25 1002.8
20260504033022 17 300 3.2 16.1 0.00 0.00 0.00 25 1002.7
20260504031515 17 243 3.2 12.9 0.00 0.00 0.00 25 1002.7
20260504030010 17 274 4.8 12.9 0.00 0.00 0.00 25 1002.6
20260504024504 17 231 0.0 9.7 0.00 0.00 0.00 24 1002.5
20260504023001 18 225 0.0 6.4 0.00 0.00 0.00 23 1002.3
20260504021557 18 176 0.0 9.7 0.00 0.00 0.00 23 1002.2
20260504020052 18 322 0.0 8.0 0.00 0.00 0.00 22 1002.0
20260504014559 18 230 0.0 6.4 0.00 0.00 0.00 22 1001.8
20260504013043 18 165 1.6 9.7 0.00 0.00 0.00 22 1001.6
20260504011541 18 333 0.0 1.6 0.00 0.00 0.00 22 1001.6
20260504010034 18 323 0.0 19.3 0.00 0.00 0.00 21 1001.8
20260504004540 19 134 1.6 14.5 0.00 0.00 0.00 22 1002.1
20260504003024 19 339 3.2 14.5 0.00 0.00 0.00 22 1002.3
20260504001520 20 43 0.0 3.2 0.00 0.00 0.00 22 1002.1
20260504000015 20 167 1.6 11.3 0.00 0.00 0.00 21 1002.5
20260503234510 20 101 0.0 4.8 0.00 0.00 0.00 21 1002.6
20260503233007 20 95 1.6 11.3 0.00 0.00 0.00 21 1002.7
20260503231502 20 296 0.0 4.8 0.00 0.00 0.00 20 1002.5
20260503230104 21 86 0.0 6.4 0.00 0.00 0.00 20 1002.3
20260503224553 21 105 3.2 12.9 0.00 0.00 0.00 19 1002.4
20260503223048 20 27 3.2 14.5 0.00 0.00 0.00 20 1002.4
20260503221552 20 307 1.6 11.3 0.00 0.00 0.00 20 1002.5
20260503220039 21 98 0.0 8.0 0.00 0.00 0.00 18 1002.5
20260503214534 21 42 3.2 17.7 0.00 0.00 0.00 17 1002.7
20260503213030 21 46 1.6 12.9 0.00 0.00 0.00 16 1003.0
20260503211525 22 247 1.6 6.4 0.00 0.00 0.00 15 1003.0